Time,TemperatureF,DewpointF,PressureIn,WindDirection,WindDirectionDegrees,WindSpeedMPH,WindSpeedGustMPH,Humidity,HourlyPrecipIn,Conditions,Clouds,dailyrainin,SoftwareType,DateUTC
2018-01-18 00:04:00,13.1,8.1,30.44,WNW,302,0.0,0.0,80,0.00,,,0.00,WeatherCatV2.22B31,2018-01-18 05:04:00,
2018-01-18 00:09:00,13.3,8.3,30.44,WNW,302,0.0,0.0,80,0.00,,,0.00,WeatherCatV2.22B31,2018-01-18 05:09:00,
2018-01-18 00:14:00,13.3,8.0,30.44,WNW,302,0.0,0.0,79,0.00,,,0.00,WeatherCatV2.22B31,2018-01-18 05:14:00,
2018-01-18 00:19:00,13.1,7.6,30.44,WNW,302,0.0,0.0,78,0.00,,,0.00,WeatherCatV2.22B31,2018-01-18 05:19:00,
2018-01-18 00:24:00,13.1,7.6,30.44,WNW,302,0.0,0.0,78,0.00,,,0.00,WeatherCatV2.22B31,2018-01-18 05:24:00,
2018-01-18 00:34:00,12.9,7.4,30.43,WNW,302,0.0,0.0,78,0.00,,,0.00,WeatherCatV2.22B31,2018-01-18 05:34:00,
2018-01-18 00:39:00,12.9,7.4,30.43,WNW,302,0.0,0.0,78,0.00,,,0.00,WeatherCatV2.22B31,2018-01-18 05:39:00,
2018-01-18 00:44:00,13.1,7.6,30.43,WNW,302,0.0,0.0,78,0.00,,,0.00,WeatherCatV2.22B31,2018-01-18 05:44:00,
2018-01-18 00:49:00,13.1,7.6,30.43,WNW,302,0.0,0.0,78,0.00,,,0.00,WeatherCatV2.22B31,2018-01-18 05:49:00,
2018-01-18 00:54:00,12.9,7.1,30.43,WNW,302,0.0,0.0,77,0.00,,,0.00,WeatherCatV2.22B31,2018-01-18 05:54:00,
2018-01-18 00:59:00,12.9,7.1,30.42,WNW,302,0.0,0.0,77,0.00,,,0.00,WeatherCatV2.22B31,2018-01-18 05:59:00,
2018-01-18 01:04:00,12.6,6.8,30.42,WNW,302,0.0,0.0,77,0.00,,,0.00,WeatherCatV2.22B31,2018-01-18 06:04:00,
2018-01-18 01:09:00,12.4,6.6,30.42,WNW,302,0.0,0.0,77,0.00,,,0.00,WeatherCatV2.22B31,2018-01-18 06:09:00,
2018-01-18 01:14:00,12.1,6.3,30.42,WNW,302,0.0,0.0,77,0.00,,,0.00,WeatherCatV2.22B31,2018-01-18 06:14:00,
2018-01-18 01:19:00,11.9,6.1,30.42,WNW,302,0.0,0.0,77,0.00,,,0.00,WeatherCatV2.22B31,2018-01-18 06:19:00,
2018-01-18 01:24:00,11.9,6.1,30.42,WNW,302,0.0,0.0,77,0.00,,,0.00,WeatherCatV2.22B31,2018-01-18 06:24:00,
2018-01-18 01:29:00,11.9,6.1,30.42,WNW,302,0.0,0.0,77,0.00,,,0.00,WeatherCatV2.22B31,2018-01-18 06:29:00,
2018-01-18 01:34:00,11.9,6.4,30.42,WNW,302,0.0,1.0,78,0.00,,,0.00,WeatherCatV2.22B31,2018-01-18 06:34:00,
2018-01-18 01:39:00,12.3,6.8,30.42,WNW,302,0.0,0.0,78,0.00,,,0.00,WeatherCatV2.22B31,2018-01-18 06:39:00,
2018-01-18 01:44:00,12.4,6.6,30.42,WNW,302,0.0,0.0,77,0.00,,,0.00,WeatherCatV2.22B31,2018-01-18 06:44:00,
2018-01-18 01:49:00,12.4,6.6,30.42,WNW,302,0.0,0.0,77,0.00,,,0.00,WeatherCatV2.22B31,2018-01-18 06:49:00,
2018-01-18 01:54:00,12.4,6.6,30.42,WNW,302,0.0,0.0,77,0.00,,,0.00,WeatherCatV2.22B31,2018-01-18 06:54:00,
2018-01-18 01:59:00,12.4,6.6,30.42,WNW,302,0.0,0.0,77,0.00,,,0.00,WeatherCatV2.22B31,2018-01-18 06:59:00,
2018-01-18 02:04:00,12.6,6.8,30.42,WNW,302,0.0,0.0,77,0.00,,,0.00,WeatherCatV2.22B31,2018-01-18 07:04:00,
2018-01-18 02:09:00,12.8,7.0,30.42,WNW,302,0.0,0.0,77,0.00,,,0.00,WeatherCatV2.22B31,2018-01-18 07:09:00,
2018-01-18 02:14:00,12.8,6.7,30.42,WNW,302,0.0,0.0,76,0.00,,,0.00,WeatherCatV2.22B31,2018-01-18 07:14:00,
2018-01-18 02:19:00,12.8,6.7,30.42,SSW,202,0.0,2.0,76,0.00,,,0.00,WeatherCatV2.22B31,2018-01-18 07:19:00,
2018-01-18 02:24:00,12.8,6.7,30.42,ESE,121,0.0,0.0,76,0.00,,,0.00,WeatherCatV2.22B31,2018-01-18 07:24:00,
2018-01-18 02:29:00,12.8,6.4,30.42,SSW,206,0.0,0.0,75,0.00,,,0.00,WeatherCatV2.22B31,2018-01-18 07:29:00,
2018-01-18 02:34:00,12.6,5.9,30.42,West,263,0.0,0.0,74,0.00,,,0.00,WeatherCatV2.22B31,2018-01-18 07:34:00,
2018-01-18 02:39:00,12.3,5.6,30.42,West,263,0.0,0.0,74,0.00,,,0.00,WeatherCatV2.22B31,2018-01-18 07:39:00,
2018-01-18 02:44:00,11.9,5.5,30.41,SE,139,0.0,0.0,75,0.00,,,0.00,WeatherCatV2.22B31,2018-01-18 07:44:00,
2018-01-18 02:49:00,11.7,5.3,30.41,SE,139,0.0,0.0,75,0.00,,,0.00,WeatherCatV2.22B31,2018-01-18 07:49:00,
2018-01-18 02:54:00,11.4,5.0,30.41,SE,139,0.0,0.0,75,0.00,,,0.00,WeatherCatV2.22B31,2018-01-18 07:54:00,
2018-01-18 02:59:00,11.1,4.8,30.42,SE,139,0.0,0.0,75,0.00,,,0.00,WeatherCatV2.22B31,2018-01-18 07:59:00,
2018-01-18 03:04:00,10.9,4.8,30.42,SE,139,0.0,0.0,76,0.00,,,0.00,WeatherCatV2.22B31,2018-01-18 08:04:00,
2018-01-18 03:09:00,10.7,4.7,30.42,SE,139,0.0,0.0,76,0.00,,,0.00,WeatherCatV2.22B31,2018-01-18 08:09:00,
2018-01-18 03:14:00,10.7,4.9,30.41,NNW,346,2.0,2.0,77,0.00,,,0.00,WeatherCatV2.22B31,2018-01-18 08:14:00,
2018-01-18 03:19:00,10.7,4.9,30.41,NNW,338,0.0,0.0,77,0.00,,,0.00,WeatherCatV2.22B31,2018-01-18 08:19:00,
2018-01-18 03:24:00,10.7,4.9,30.41,NNW,338,0.0,0.0,77,0.00,,,0.00,WeatherCatV2.22B31,2018-01-18 08:24:00,
2018-01-18 03:29:00,10.5,4.7,30.41,NNW,338,0.0,0.0,77,0.00,,,0.00,WeatherCatV2.22B31,2018-01-18 08:29:00,
2018-01-18 03:34:00,10.4,4.7,30.41,NNW,338,0.0,0.0,77,0.00,,,0.00,WeatherCatV2.22B31,2018-01-18 08:34:00,
2018-01-18 03:39:00,10.2,4.4,30.41,NNW,338,0.0,0.0,77,0.00,,,0.00,WeatherCatV2.22B31,2018-01-18 08:39:00,
2018-01-18 03:44:00,10.0,4.3,30.40,NNW,338,0.0,0.0,77,0.00,,,0.00,WeatherCatV2.22B31,2018-01-18 08:44:00,
2018-01-18 03:49:00,10.0,4.5,30.40,NNW,338,0.0,0.0,78,0.00,,,0.00,WeatherCatV2.22B31,2018-01-18 08:49:00,
2018-01-18 03:54:00,10.0,4.5,30.40,NNW,338,0.0,0.0,78,0.00,,,0.00,WeatherCatV2.22B31,2018-01-18 08:54:00,
2018-01-18 03:59:00,10.0,4.5,30.40,NNW,338,0.0,0.0,78,0.00,,,0.00,WeatherCatV2.22B31,2018-01-18 08:59:00,
2018-01-18 04:04:00,9.9,4.4,30.40,NNW,338,0.0,0.0,78,0.00,,,0.00,WeatherCatV2.22B31,2018-01-18 09:04:00,
2018-01-18 04:09:00,9.9,4.4,30.40,NNW,338,0.0,0.0,78,0.00,,,0.00,WeatherCatV2.22B31,2018-01-18 09:09:00,
2018-01-18 04:14:00,9.7,4.2,30.40,NNW,338,0.0,0.0,78,0.00,,,0.00,WeatherCatV2.22B31,2018-01-18 09:14:00,
2018-01-18 04:19:00,9.7,4.2,30.40,NNW,338,0.0,0.0,78,0.00,,,0.00,WeatherCatV2.22B31,2018-01-18 09:19:00,
2018-01-18 04:24:00,9.5,4.3,30.40,NNW,338,0.0,0.0,79,0.00,,,0.00,WeatherCatV2.22B31,2018-01-18 09:24:00,
2018-01-18 04:29:00,9.3,4.1,30.39,NNW,338,0.0,0.0,79,0.00,,,0.00,WeatherCatV2.22B31,2018-01-18 09:29:00,
2018-01-18 04:34:00,9.3,4.1,30.39,NNW,338,0.0,0.0,79,0.00,,,0.00,WeatherCatV2.22B31,2018-01-18 09:34:00,
2018-01-18 04:39:00,9.2,4.0,30.39,NNW,338,0.0,0.0,79,0.00,,,0.00,WeatherCatV2.22B31,2018-01-18 09:39:00,
2018-01-18 04:44:00,9.2,4.0,30.39,NNW,338,0.0,0.0,79,0.00,,,0.00,WeatherCatV2.22B31,2018-01-18 09:44:00,
2018-01-18 04:49:00,9.0,3.8,30.39,NNW,338,0.0,0.0,79,0.00,,,0.00,WeatherCatV2.22B31,2018-01-18 09:49:00,
2018-01-18 04:54:00,9.0,3.8,30.39,NNW,338,0.0,0.0,79,0.00,,,0.00,WeatherCatV2.22B31,2018-01-18 09:54:00,
2018-01-18 04:59:00,8.8,3.9,30.39,NNW,338,0.0,0.0,80,0.00,,,0.00,WeatherCatV2.22B31,2018-01-18 09:59:00,
2018-01-18 05:04:00,8.8,3.9,30.39,NNW,338,0.0,0.0,80,0.00,,,0.00,WeatherCatV2.22B31,2018-01-18 10:04:00,
2018-01-18 05:10:00,8.8,3.9,30.39,NNW,338,0.0,0.0,80,0.00,,,0.00,WeatherCatV2.22B31,2018-01-18 10:10:00,
2018-01-18 05:15:00,8.6,3.7,30.39,NNW,338,0.0,0.0,80,0.00,,,0.00,WeatherCatV2.22B31,2018-01-18 10:15:00,
2018-01-18 05:20:00,8.6,3.7,30.39,NNW,338,0.0,0.0,80,0.00,,,0.00,WeatherCatV2.22B31,2018-01-18 10:20:00,
2018-01-18 05:25:00,8.6,3.7,30.39,NNW,338,0.0,0.0,80,0.00,,,0.00,WeatherCatV2.22B31,2018-01-18 10:25:00,
2018-01-18 05:30:00,8.6,3.7,30.39,NNW,338,0.0,0.0,80,0.00,,,0.00,WeatherCatV2.22B31,2018-01-18 10:30:00,
2018-01-18 05:35:00,8.6,3.7,30.39,NNW,338,0.0,0.0,80,0.00,,,0.00,WeatherCatV2.22B31,2018-01-18 10:35:00,
2018-01-18 05:40:00,8.6,3.7,30.39,NNW,338,0.0,0.0,80,0.00,,,0.00,WeatherCatV2.22B31,2018-01-18 10:40:00,
2018-01-18 05:45:00,8.6,3.7,30.39,NNW,338,0.0,0.0,80,0.00,,,0.00,WeatherCatV2.22B31,2018-01-18 10:45:00,
2018-01-18 05:50:00,8.6,3.7,30.39,NNW,338,0.0,0.0,80,0.00,,,0.00,WeatherCatV2.22B31,2018-01-18 10:50:00,
2018-01-18 05:55:00,8.6,3.7,30.39,NNW,338,0.0,0.0,80,0.00,,,0.00,WeatherCatV2.22B31,2018-01-18 10:55:00,
2018-01-18 06:00:00,8.6,3.7,30.39,NNW,338,0.0,0.0,80,0.00,,,0.00,WeatherCatV2.22B31,2018-01-18 11:00:00,
2018-01-18 06:05:00,8.6,3.7,30.39,NNW,338,0.0,0.0,80,0.00,,,0.00,WeatherCatV2.22B31,2018-01-18 11:05:00,
2018-01-18 06:10:00,8.4,3.5,30.39,NNW,338,0.0,0.0,80,0.00,,,0.00,WeatherCatV2.22B31,2018-01-18 11:10:00,
2018-01-18 06:15:00,8.4,3.5,30.39,NNW,338,0.0,0.0,80,0.00,,,0.00,WeatherCatV2.22B31,2018-01-18 11:15:00,
2018-01-18 06:20:00,8.3,3.4,30.39,NNW,338,0.0,0.0,80,0.00,,,0.00,WeatherCatV2.22B31,2018-01-18 11:20:00,
2018-01-18 06:25:00,8.3,3.4,30.39,NNW,338,0.0,0.0,80,0.00,,,0.00,WeatherCatV2.22B31,2018-01-18 11:25:00,
2018-01-18 06:30:00,8.3,3.4,30.38,NNW,338,0.0,0.0,80,0.00,,,0.00,WeatherCatV2.22B31,2018-01-18 11:30:00,
2018-01-18 06:35:00,8.1,3.2,30.38,NNW,338,0.0,0.0,80,0.00,,,0.00,WeatherCatV2.22B31,2018-01-18 11:35:00,
2018-01-18 06:40:00,8.1,3.5,30.38,NNW,338,0.0,0.0,81,0.00,,,0.00,WeatherCatV2.22B31,2018-01-18 11:40:00,
2018-01-18 06:45:00,8.3,3.7,30.37,NNW,338,0.0,0.0,81,0.00,,,0.00,WeatherCatV2.22B31,2018-01-18 11:45:00,
2018-01-18 06:50:00,8.3,3.7,30.37,NNW,338,0.0,0.0,81,0.00,,,0.00,WeatherCatV2.22B31,2018-01-18 11:50:00,
2018-01-18 06:55:00,8.3,3.7,30.37,NNW,338,0.0,0.0,81,0.00,,,0.00,WeatherCatV2.22B31,2018-01-18 11:55:00,
2018-01-18 07:00:00,8.1,3.5,30.37,NNW,338,0.0,0.0,81,0.00,,,0.00,WeatherCatV2.22B31,2018-01-18 12:00:00,
2018-01-18 07:05:00,8.1,3.5,30.37,NNW,338,0.0,0.0,81,0.00,,,0.00,WeatherCatV2.22B31,2018-01-18 12:05:00,
2018-01-18 07:10:00,8.1,3.5,30.37,NNW,338,0.0,0.0,81,0.00,,,0.00,WeatherCatV2.22B31,2018-01-18 12:10:00,
2018-01-18 07:15:00,8.1,3.5,30.37,NNW,338,0.0,0.0,81,0.00,,,0.00,WeatherCatV2.22B31,2018-01-18 12:15:00,
2018-01-18 07:20:00,8.3,3.7,30.37,NNW,338,0.0,0.0,81,0.00,,,0.00,WeatherCatV2.22B31,2018-01-18 12:20:00,
2018-01-18 07:25:00,8.3,3.7,30.37,NNW,338,0.0,0.0,81,0.00,,,0.00,WeatherCatV2.22B31,2018-01-18 12:25:00,
2018-01-18 07:30:00,8.3,3.7,30.37,NNW,338,0.0,0.0,81,0.00,,,0.00,WeatherCatV2.22B31,2018-01-18 12:30:00,
2018-01-18 07:35:00,8.3,3.7,30.37,NNW,338,0.0,0.0,81,0.00,,,0.00,WeatherCatV2.22B31,2018-01-18 12:35:00,
2018-01-18 07:40:00,8.3,3.7,30.37,NNW,338,0.0,0.0,81,0.00,,,0.00,WeatherCatV2.22B31,2018-01-18 12:40:00,
2018-01-18 07:45:00,8.3,3.7,30.37,NNW,338,0.0,0.0,81,0.00,,,0.00,WeatherCatV2.22B31,2018-01-18 12:45:00,
2018-01-18 07:50:00,8.3,3.7,30.37,NNW,338,0.0,0.0,81,0.00,,,0.00,WeatherCatV2.22B31,2018-01-18 12:50:00,
2018-01-18 07:55:00,8.3,3.7,30.37,NNW,338,0.0,0.0,81,0.00,,,0.00,WeatherCatV2.22B31,2018-01-18 12:55:00,
2018-01-18 08:00:00,8.4,3.8,30.37,NNW,338,0.0,0.0,81,0.00,,,0.00,WeatherCatV2.22B31,2018-01-18 13:00:00,
2018-01-18 08:05:00,8.4,3.8,30.37,NNW,338,0.0,0.0,81,0.00,,,0.00,WeatherCatV2.22B31,2018-01-18 13:05:00,
2018-01-18 08:10:00,8.4,3.8,30.37,NNW,338,0.0,0.0,81,0.00,,,0.00,WeatherCatV2.22B31,2018-01-18 13:10:00,
2018-01-18 08:15:00,8.4,3.8,30.37,NNW,338,0.0,0.0,81,0.00,,,0.00,WeatherCatV2.22B31,2018-01-18 13:15:00,
2018-01-18 08:20:00,8.4,3.8,30.37,NNW,338,0.0,0.0,81,0.00,,,0.00,WeatherCatV2.22B31,2018-01-18 13:20:00,
2018-01-18 08:25:00,8.6,4.0,30.37,NNW,338,0.0,0.0,81,0.00,,,0.00,WeatherCatV2.22B31,2018-01-18 13:25:00,
2018-01-18 08:30:00,8.6,4.0,30.37,NNW,338,0.0,0.0,81,0.00,,,0.00,WeatherCatV2.22B31,2018-01-18 13:30:00,
2018-01-18 08:35:00,8.8,4.2,30.37,NNW,338,0.0,0.0,81,0.00,,,0.00,WeatherCatV2.22B31,2018-01-18 13:35:00,
2018-01-18 08:40:00,9.0,4.4,30.37,NNW,338,0.0,0.0,81,0.00,,,0.00,WeatherCatV2.22B31,2018-01-18 13:40:00,
2018-01-18 08:45:00,9.2,4.6,30.37,NNW,338,0.0,0.0,81,0.00,,,0.00,WeatherCatV2.22B31,2018-01-18 13:45:00,
2018-01-18 08:50:00,9.3,4.7,30.37,NNW,338,0.0,0.0,81,0.00,,,0.00,WeatherCatV2.22B31,2018-01-18 13:50:00,
2018-01-18 08:55:00,9.7,5.1,30.37,WSW,258,0.0,0.0,81,0.00,,,0.00,WeatherCatV2.22B31,2018-01-18 13:55:00,
2018-01-18 09:00:00,10.0,5.4,30.37,WSW,258,0.0,0.0,81,0.00,,,0.00,WeatherCatV2.22B31,2018-01-18 14:00:00,
2018-01-18 09:05:00,10.2,5.6,30.37,WSW,258,0.0,0.0,81,0.00,,,0.00,WeatherCatV2.22B31,2018-01-18 14:05:00,
2018-01-18 09:10:00,10.4,5.5,30.37,West,263,0.0,1.0,80,0.00,,,0.00,WeatherCatV2.22B31,2018-01-18 14:10:00,
2018-01-18 09:15:00,10.7,5.8,30.37,West,263,0.0,0.0,80,0.00,,,0.00,WeatherCatV2.22B31,2018-01-18 14:15:00,
2018-01-18 09:20:00,11.1,6.2,30.37,West,263,0.0,0.0,80,0.00,,,0.00,WeatherCatV2.22B31,2018-01-18 14:20:00,
2018-01-18 09:25:00,11.4,6.4,30.37,West,263,0.0,0.0,80,0.00,,,0.00,WeatherCatV2.22B31,2018-01-18 14:25:00,
2018-01-18 09:30:00,11.9,6.7,30.37,West,263,0.0,0.0,79,0.00,,,0.00,WeatherCatV2.22B31,2018-01-18 14:30:00,
2018-01-18 09:35:00,12.4,6.9,30.37,West,263,0.0,0.0,78,0.00,,,0.00,WeatherCatV2.22B31,2018-01-18 14:35:00,
2018-01-18 09:40:00,12.8,7.3,30.37,West,263,0.0,0.0,78,0.00,,,0.00,WeatherCatV2.22B31,2018-01-18 14:40:00,
2018-01-18 09:45:00,13.1,7.3,30.37,West,263,0.0,0.0,77,0.00,,,0.00,WeatherCatV2.22B31,2018-01-18 14:45:00,
2018-01-18 09:50:00,13.5,7.7,30.37,West,263,0.0,0.0,77,0.00,,,0.00,WeatherCatV2.22B31,2018-01-18 14:50:00,
2018-01-18 09:55:00,13.8,7.7,30.37,ENE,74,0.0,2.0,76,0.00,,,0.00,WeatherCatV2.22B31,2018-01-18 14:55:00,
2018-01-18 10:00:00,14.3,7.8,30.37,ESE,108,0.0,0.0,75,0.00,,,0.00,WeatherCatV2.22B31,2018-01-18 15:00:00,
2018-01-18 10:05:00,14.8,8.0,30.37,SW,231,0.0,0.0,74,0.00,,,0.00,WeatherCatV2.22B31,2018-01-18 15:05:00,
2018-01-18 10:10:00,15.4,8.0,30.37,West,274,0.0,0.0,72,0.00,,,0.00,WeatherCatV2.22B31,2018-01-18 15:10:00,
2018-01-18 10:15:00,15.9,7.9,30.37,WNW,291,0.0,1.0,70,0.00,,,0.00,WeatherCatV2.22B31,2018-01-18 15:15:00,
2018-01-18 10:20:00,16.2,7.8,30.37,ENE,60,0.0,0.0,69,0.00,,,0.00,WeatherCatV2.22B31,2018-01-18 15:20:00,
2018-01-18 10:25:00,16.7,8.0,30.37,WSW,248,0.0,0.0,68,0.00,,,0.00,WeatherCatV2.22B31,2018-01-18 15:25:00,
2018-01-18 10:30:00,17.0,8.0,30.37,WNW,298,0.0,0.0,67,0.00,,,0.00,WeatherCatV2.22B31,2018-01-18 15:30:00,
2018-01-18 10:35:00,17.5,8.1,30.37,WNW,294,0.0,1.0,66,0.00,,,0.00,WeatherCatV2.22B31,2018-01-18 15:35:00,
2018-01-18 10:40:00,17.8,8.1,30.37,South,187,0.0,0.0,65,0.00,,,0.00,WeatherCatV2.22B31,2018-01-18 15:40:00,
2018-01-18 10:45:00,18.1,8.0,30.37,SW,215,2.0,3.0,64,0.00,,,0.00,WeatherCatV2.22B31,2018-01-18 15:45:00,
2018-01-18 10:50:00,18.4,7.6,30.37,NW,308,0.0,3.0,62,0.00,,,0.00,WeatherCatV2.22B31,2018-01-18 15:50:00,
2018-01-18 10:55:00,18.6,8.1,30.37,WNW,298,0.0,1.0,63,0.00,,,0.00,WeatherCatV2.22B31,2018-01-18 15:55:00,
2018-01-18 11:00:00,18.9,8.4,30.36,NW,311,0.0,0.0,63,0.00,,,0.00,WeatherCatV2.22B31,2018-01-18 16:00:00,
2018-01-18 11:05:00,19.2,8.4,30.36,NNW,333,0.0,0.0,62,0.00,,,0.00,WeatherCatV2.22B31,2018-01-18 16:05:00,
2018-01-18 11:10:00,19.5,8.6,30.36,NW,306,0.0,2.0,62,0.00,,,0.00,WeatherCatV2.22B31,2018-01-18 16:10:00,
2018-01-18 11:15:00,19.9,8.6,30.36,WNW,286,0.0,0.0,61,0.00,,,0.00,WeatherCatV2.22B31,2018-01-18 16:15:00,
2018-01-18 11:20:00,20.2,8.9,30.36,WNW,286,0.0,0.0,61,0.00,,,0.00,WeatherCatV2.22B31,2018-01-18 16:20:00,
2018-01-18 11:25:00,20.6,8.9,30.36,SSW,192,0.0,0.0,60,0.00,,,0.00,WeatherCatV2.22B31,2018-01-18 16:25:00,
2018-01-18 11:30:00,21.1,9.0,30.35,WSW,258,0.0,3.0,59,0.00,,,0.00,WeatherCatV2.22B31,2018-01-18 16:30:00,
2018-01-18 11:35:00,21.3,9.2,30.35,WSW,258,0.0,0.0,59,0.00,,,0.00,WeatherCatV2.22B31,2018-01-18 16:35:00,
2018-01-18 11:40:00,21.4,8.9,30.35,SE,141,0.0,4.0,58,0.00,,,0.00,WeatherCatV2.22B31,2018-01-18 16:40:00,
2018-01-18 11:45:00,21.6,9.1,30.34,South,175,0.0,2.0,58,0.00,,,0.00,WeatherCatV2.22B31,2018-01-18 16:45:00,
2018-01-18 11:50:00,21.8,9.3,30.34,North,350,0.0,5.0,58,0.00,,,0.00,WeatherCatV2.22B31,2018-01-18 16:50:00,
2018-01-18 11:55:00,21.9,9.4,30.34,East,90,2.0,2.0,58,0.00,,,0.00,WeatherCatV2.22B31,2018-01-18 16:55:00,
2018-01-18 12:00:00,22.1,9.2,30.34,WNW,296,0.0,0.0,57,0.00,,,0.00,WeatherCatV2.22B31,2018-01-18 17:00:00,
2018-01-18 12:05:00,22.4,9.1,30.34,West,273,0.0,7.0,56,0.00,,,0.00,WeatherCatV2.22B31,2018-01-18 17:05:00,
2018-01-18 12:10:00,22.5,9.6,30.34,NNW,327,0.0,3.0,57,0.00,,,0.00,WeatherCatV2.22B31,2018-01-18 17:10:00,
2018-01-18 12:15:00,22.9,10.0,30.33,WNW,284,0.0,0.0,57,0.00,,,0.00,WeatherCatV2.22B31,2018-01-18 17:15:00,
2018-01-18 12:20:00,23.2,10.2,30.33,WNW,297,0.0,2.0,57,0.00,,,0.00,WeatherCatV2.22B31,2018-01-18 17:20:00,
2018-01-18 12:25:00,23.6,11.0,30.33,NW,306,0.0,3.0,58,0.00,,,0.00,WeatherCatV2.22B31,2018-01-18 17:25:00,
2018-01-18 12:30:00,23.9,10.5,30.32,WNW,302,0.0,2.0,56,0.00,,,0.00,WeatherCatV2.22B31,2018-01-18 17:30:00,
2018-01-18 12:35:00,24.4,11.4,30.32,South,180,0.0,0.0,57,0.00,,,0.00,WeatherCatV2.22B31,2018-01-18 17:35:00,
2018-01-18 12:40:00,24.5,11.5,30.32,SSE,156,0.0,2.0,57,0.00,,,0.00,WeatherCatV2.22B31,2018-01-18 17:40:00,
2018-01-18 12:45:00,24.7,11.7,30.31,SSE,165,0.0,0.0,57,0.00,,,0.00,WeatherCatV2.22B31,2018-01-18 17:45:00,
2018-01-18 12:50:00,25.0,11.9,30.31,ESE,117,0.0,1.0,57,0.00,,,0.00,WeatherCatV2.22B31,2018-01-18 17:50:00,
2018-01-18 12:55:00,25.1,11.6,30.31,NNW,329,0.0,0.0,56,0.00,,,0.00,WeatherCatV2.22B31,2018-01-18 17:55:00,
2018-01-18 13:00:00,25.3,12.2,30.29,WSW,247,0.0,0.0,57,0.00,,,0.00,WeatherCatV2.22B31,2018-01-18 18:00:00,
2018-01-18 13:05:00,25.4,11.9,30.29,SSE,155,0.0,0.0,56,0.00,,,0.00,WeatherCatV2.22B31,2018-01-18 18:05:00,
2018-01-18 13:10:00,25.6,12.5,30.29,South,182,0.0,7.0,57,0.00,,,0.00,WeatherCatV2.22B31,2018-01-18 18:10:00,
2018-01-18 13:15:00,25.6,12.1,30.28,SSE,159,0.0,0.0,56,0.00,,,0.00,WeatherCatV2.22B31,2018-01-18 18:15:00,
2018-01-18 13:20:00,25.6,12.1,30.28,NW,308,0.0,4.0,56,0.00,,,0.00,WeatherCatV2.22B31,2018-01-18 18:20:00,